GEFSSGP_con_probscp_132.txt.gz
Probability
0 0 0 0 0 0 0 0 0 1 3 4 3 4 5 4 1 0 1 5 13 12 5 3 5 7 10 15 20 25 23 19 15 10 5 4 3 2 1 0 0 0 0 1 1 1 0 0 0
0 0 0 0 0 0 0 0 0 2 4 5 6 7 7 4 2 2 3 8 15 14 7 5 8 11 14 18 22 25 24 19 14 7 3 1 1 1 0 0 0 0 0 1 2 2 1 1 0
0 0 0 0 0 0 0 0 1 3 5 6 7 9 7 4 3 5 8 15 22 19 11 10 16 20 23 25 26 25 23 18 10 4 1 0 0 0 0 0 1 1 1 1 2 3 3 2 1
0 0 0 0 0 0 0 0 1 3 6 7 9 9 7 4 4 9 16 25 31 25 18 20 26 31 32 33 30 26 20 15 8 3 1 1 1 1 0 1 2 3 3 2 3 4 5 4 4
0 0 0 0 0 0 0 0 1 4 6 9 11 11 10 7 9 15 24 32 36 31 26 30 37 40 39 38 33 26 19 15 11 6 4 3 3 2 1 3 4 5 4 4 4 4 4 5 5
0 0 0 0 0 0 0 0 1 4 7 9 13 15 15 15 19 25 31 34 36 33 31 35 42 45 44 39 33 25 19 18 16 13 10 8 5 3 3 4 6 6 6 6 6 6 4 4 5
0 0 0 0 0 0 0 0 1 4 9 12 15 18 19 22 27 32 34 33 33 34 35 38 43 46 45 39 32 24 18 17 18 17 15 12 10 7 6 6 6 6 6 7 9 8 6 5 6
0 0 0 0 0 0 0 1 3 7 11 15 17 18 21 25 31 35 34 31 30 31 34 37 40 43 44 40 32 23 18 17 16 14 13 12 12 11 10 9 8 6 5 7 10 10 8 8 10
0 0 0 0 0 0 1 3 6 9 14 17 19 21 25 31 35 36 35 32 29 27 29 33 37 40 41 39 32 25 21 17 14 11 10 9 9 9 11 12 12 10 7 7 10 11 9 9 9
0 0 0 0 0 0 1 3 6 10 14 18 20 25 32 36 34 32 33 32 28 24 25 29 34 36 37 35 31 26 22 17 12 10 8 7 6 6 8 10 12 11 8 9 10 11 11 9 8
0 0 0 0 0 0 1 2 5 9 11 13 19 27 33 34 29 25 24 24 24 24 24 24 26 28 28 27 26 23 18 13 11 9 8 6 4 4 5 5 5 6 6 8 9 10 11 10 9
0 0 0 0 1 1 2 3 5 7 8 9 16 24 28 27 22 17 15 16 18 19 19 19 18 17 18 18 18 16 12 10 9 9 7 6 5 3 2 1 1 1 2 4 6 7 8 8 8
0 0 0 1 2 3 5 5 6 7 7 9 13 18 22 21 16 12 12 12 12 11 11 13 14 13 11 11 12 11 9 8 8 8 8 7 5 3 1 0 0 0 0 1 2 3 4 5 5
0 1 1 2 3 4 6 6 5 5 7 11 13 15 17 16 12 10 10 10 10 7 6 8 10 8 6 6 8 9 8 7 7 7 7 6 4 3 1 0 0 0 0 0 0 1 1 2 3
0 1 2 3 3 3 4 5 4 3 6 13 15 14 13 11 9 8 8 8 8 6 3 4 4 3 2 3 6 9 8 6 5 5 5 3 3 3 2 1 0 0 0 0 0 0 0 0 1
0 1 2 3 3 2 2 3 4 4 7 11 13 11 9 6 5 5 5 5 5 4 2 2 2 1 0 2 5 8 7 5 3 3 2 1 1 3 3 2 1 0 0 0 0 0 0 0 0
0 0 1 2 3 2 2 3 5 6 7 7 8 9 7 5 3 3 2 2 3 3 2 2 2 1 0 2 4 6 6 4 2 1 0 0 1 2 2 2 1 0 0 0 0 0 0 0 0
0 0 0 1 2 3 3 4 7 8 7 7 9 10 7 5 3 1 1 1 2 1 1 2 1 1 1 2 3 2 2 1 1 0 0 0 0 1 1 1 0 0 0 0 0 0 0 0 0
0 0 0 1 3 4 4 5 6 7 7 9 12 11 8 5 3 1 1 2 1 0 0 1 1 1 1 2 1 0 0 0 0 0 0 0 0 0 0 0 0 0 0 0 0 0 0 0 0
0 0 0 2 3 3 2 3 4 4 6 8 11 10 8 6 4 3 3 2 1 1 1 0 0 0 1 1 0 0 0 0 0 0 0 0 0 0 0 0 0 0 0 0 0 0 1 0 0
0 0 0 1 1 1 1 1 1 2 4 6 7 7 6 6 6 4 3 3 3 2 2 1 1 0 0 0 0 0 0 0 0 0 0 0 0 0 0 0 0 0 0 0 0 0 0 0 0
0 0 0 0 0 0 0 0 0 1 2 3 5 4 5 6 6 5 4 3 3 3 3 3 2 1 1 0 0 0 0 0 0 0 0 0 0 0 0 0 0 0 0 0 0 0 1 1 1
0 0 0 0 0 0 0 0 0 0 0 1 3 4 5 6 6 6 5 4 3 3 3 4 4 3 2 1 0 0 0 0 0 0 0 0 0 0 0 0 0 0 0 0 0 0 1 2 2
0 0 0 0 0 0 0 0 0 0 0 2 4 5 5 6 6 5 4 4 3 3 3 3 4 3 3 2 1 0 0 1 0 0 0 0 0 0 0 0 0 0 0 0 0 0 1 1 2
0 0 0 0 0 0 0 0 0 0 0 2 5 6 5 6 6 4 4 4 3 3 3 3 3 3 3 2 1 0 0 0 0 0 0 0 0 0 0 0 0 0 0 0 0 0 0 0 1
0 0 0 0 0 0 0 0 0 0 0 2 4 5 6 7 6 4 3 3 3 3 3 3 3 3 2 1 1 0 0 0 0 0 0 0 0 0 0 0 0 0 0 0 0 0 0 0 0
0 0 0 0 0 0 0 0 0 0 0 1 2 4 5 6 4 2 1 1 1 2 2 2 2 1 1 0 0 0 0 0 0 0 0 0 0 0 0 0 0 0 0 0 0 0 0 0 0
0 0 0 0 0 0 0 0 0 0 0 0 2 3 3 3 2 0 0 0 0 1 1 1 1 0 0 0 0 0 0 0 0 0 0 0 0 0 0 0 0 0 0 0 0 0 0 0 0
0 0 0 0 0 0 0 0 0 0 0 1 2 2 1 1 0 0 0 0 0 0 0 0 0 0 0 0 0 0 0 0 0 0 0 0 0 0 0 0 0 0 0 0 0 0 0 0 0
0 0 0 0 0 0 0 0 0 0 0 1 3 2 0 0 0 0 0 0 0 0 0 0 0 0 0 0 0 0 0 0 0 0 0 0 0 0 0 0 0 0 0 0 0 0 0 0 0

GEFSSGP_con_probscp_138.txt.gz
Probability
0 0 0 0 0 0 0 0 0 0 0 0 0 1 1 0 0 0 1 4 5 5 3 2 2 1 3 10 18 25 28 23 16 11 7 2 0 0 0 0 0 0 0 0 0 0 0 0 0
0 0 0 0 0 0 0 0 0 0 0 0 1 2 2 1 0 0 3 6 7 4 2 1 1 2 5 11 21 28 28 23 16 11 6 2 0 1 1 1 0 0 0 0 0 0 0 0 0
0 0 0 0 0 0 0 1 1 1 0 1 3 4 3 1 0 2 5 8 7 3 1 0 1 3 8 14 24 31 30 26 20 13 6 3 2 2 2 2 1 0 0 0 0 0 0 0 0
0 0 0 0 0 0 1 2 2 1 1 2 5 5 3 2 2 5 8 9 6 3 1 1 2 4 9 17 26 31 31 31 28 19 10 6 4 3 3 3 1 0 1 1 0 0 0 0 0
0 0 0 0 0 0 1 2 2 2 1 3 5 6 5 4 6 8 9 8 6 3 3 3 4 7 12 21 28 31 33 36 34 26 16 11 7 5 4 4 1 1 2 2 1 0 0 0 0
0 0 0 0 0 0 0 1 1 2 2 3 5 7 9 10 10 9 7 5 5 5 5 5 7 9 15 23 29 32 36 40 38 31 22 15 10 6 5 3 1 1 2 3 2 0 0 1 1
0 0 0 0 0 0 0 0 1 2 3 4 5 8 12 17 17 13 8 6 6 6 7 7 6 7 12 19 24 29 32 34 34 30 24 16 11 7 4 2 0 0 1 2 1 0 0 1 2
0 0 0 0 0 0 0 1 2 3 4 6 8 12 19 26 27 23 17 12 10 10 11 11 7 7 10 13 16 19 21 21 21 20 18 13 9 7 5 3 2 2 1 1 1 1 2 2 2
0 0 0 0 0 0 0 2 4 6 8 10 13 19 29 38 39 35 28 21 17 16 17 16 14 12 12 12 12 12 11 11 11 11 11 10 9 8 8 9 8 5 3 2 3 4 4 3 2
0 0 0 0 0 0 1 3 5 9 12 14 18 24 33 39 41 39 33 27 23 21 21 19 16 15 14 15 17 16 14 12 11 11 11 12 12 10 10 12 11 7 4 3 3 4 3 3 2
0 0 0 0 0 1 3 5 9 12 13 14 18 24 30 31 33 32 30 27 25 22 19 17 16 15 17 21 25 26 25 22 17 14 14 15 16 14 13 13 12 9 7 6 5 4 3 3 2
0 0 0 0 1 2 5 8 12 15 14 12 14 21 26 27 25 26 25 24 24 21 16 15 18 21 24 27 29 32 32 29 24 19 18 18 18 17 16 16 14 12 11 9 7 6 5 5 5
0 0 0 0 1 3 6 9 12 14 14 13 14 20 25 25 23 23 22 20 20 18 15 14 18 25 30 31 32 32 33 31 29 27 25 21 19 18 19 20 18 14 12 9 7 7 7 7 6
0 0 0 1 2 4 6 8 8 8 11 13 16 20 23 24 22 21 20 18 18 18 17 16 18 26 30 31 30 30 31 33 32 32 30 25 20 19 20 22 20 14 10 8 7 7 7 8 7
0 0 1 2 3 3 4 5 4 3 7 13 17 18 19 19 18 17 18 19 19 19 18 15 16 22 27 29 28 26 27 29 30 31 30 26 22 21 20 20 19 14 9 6 5 6 7 8 9
0 0 1 2 2 1 2 3 2 2 5 11 15 16 15 14 12 12 15 18 19 19 16 13 12 16 22 26 27 27 26 25 26 28 28 25 23 20 18 17 17 15 10 6 5 6 8 10 12
0 0 0 1 1 0 1 2 2 2 4 8 12 15 14 12 10 9 10 13 15 15 13 11 10 11 16 22 25 26 25 23 22 23 23 23 20 17 16 16 15 14 11 7 7 8 11 14 16
0 0 0 0 0 0 1 3 3 2 4 7 11 14 14 11 9 7 6 9 10 9 9 9 9 8 11 16 19 21 21 19 17 16 16 16 15 14 15 15 13 12 11 10 9 10 13 15 16
0 0 0 1 1 2 3 4 4 5 8 11 13 14 13 10 6 4 5 7 7 6 6 6 6 8 10 11 14 16 16 13 11 10 10 11 11 12 12 12 11 10 10 9 8 8 8 10 10
0 0 0 2 4 4 4 4 5 7 11 16 15 14 13 9 5 5 6 6 6 6 5 4 5 8 9 9 9 10 10 9 7 8 9 9 9 9 9 9 9 8 6 5 4 4 4 4 5
0 0 0 2 4 4 3 4 5 7 10 15 15 13 11 9 6 6 7 7 6 5 5 4 5 6 7 7 5 5 5 5 5 7 8 8 8 7 7 7 6 5 3 2 2 2 2 2 4
0 0 0 0 1 2 1 2 3 4 7 10 12 10 8 7 9 9 9 7 6 6 5 5 5 5 5 4 4 3 2 2 3 4 4 5 5 5 5 6 5 4 2 1 1 1 0 1 1
0 0 0 0 0 0 0 0 1 2 3 7 9 7 6 8 12 12 9 7 6 6 5 4 4 3 3 3 3 3 2 2 3 2 1 2 2 3 3 4 4 3 3 2 2 1 0 0 0
0 0 0 0 0 0 0 0 0 1 2 6 8 8 8 11 14 13 9 7 6 6 6 4 3 3 3 3 4 4 4 4 4 2 0 1 2 2 3 3 3 4 4 3 2 1 0 0 0
0 0 0 0 0 0 0 0 0 1 3 7 10 10 11 14 16 14 10 7 6 6 5 4 3 3 3 3 3 4 4 5 4 2 0 1 1 2 2 2 2 3 3 2 1 1 0 0 0
0 0 0 0 0 0 0 0 0 1 4 8 9 9 12 14 14 12 10 7 5 4 4 3 3 3 3 3 3 4 4 4 3 2 1 0 0 0 1 1 1 1 1 0 0 0 0 0 0
0 0 0 0 0 0 0 0 1 2 4 6 6 7 10 12 11 10 8 5 3 2 3 3 3 3 3 3 3 3 3 3 2 2 1 0 0 0 0 0 0 0 0 0 0 0 0 0 0
0 0 0 0 0 0 0 0 1 2 4 4 4 8 10 10 9 7 4 2 1 1 1 2 3 3 3 3 2 1 1 1 1 1 0 0 0 0 0 0 0 0 0 0 0 0 0 0 0
0 0 0 0 0 0 0 0 1 2 2 3 5 8 9 9 7 4 1 0 0 0 0 1 2 2 2 1 1 0 0 0 0 0 0 0 0 0 0 0 0 0 0 0 0 0 0 0 0
0 0 0 0 0 0 0 1 1 1 1 2 6 8 8 8 6 2 0 0 0 0 0 0 1 1 1 0 0 0 0 0 0 0 0 0 0 0 0 0 0 0 0 0 0 0 0 0 0

GEFSSGP_con_probscp_144.txt.gz
Probability
0 0 0 0 0 0 0 0 1 0 1 2 4 8 12 11 6 2 6 17 22 14 7 9 9 9 9 6 4 4 3 1 0 0 0 0 0 0 1 1 1 0 0 0 0 0 0 0 0
0 0 0 0 0 0 0 1 1 1 0 2 5 11 13 10 5 4 9 20 23 16 10 11 12 12 11 8 6 6 5 2 1 1 0 0 0 0 1 2 1 0 0 0 0 0 0 0 0
0 0 0 0 0 0 0 1 2 2 1 3 10 16 16 11 5 6 13 21 23 19 15 15 17 17 14 11 9 8 6 4 3 3 1 0 0 0 1 1 1 0 0 0 0 0 0 0 0
0 0 0 0 0 0 0 0 1 2 3 7 15 22 21 14 9 9 14 18 20 19 17 18 22 22 20 17 15 12 11 11 10 8 4 1 0 0 0 0 0 0 0 0 0 0 0 0 0
0 0 0 0 0 0 0 0 0 1 3 10 21 27 24 16 11 10 13 14 14 15 15 18 24 28 27 25 22 20 20 21 21 18 12 6 2 1 1 1 0 0 0 0 0 0 0 0 0
0 0 0 0 0 0 1 1 1 4 7 15 27 31 23 15 10 9 10 12 13 13 13 14 19 26 29 28 27 26 25 26 28 26 20 11 5 4 3 2 1 0 0 0 0 0 0 0 0
0 0 0 0 0 1 2 3 4 9 13 19 28 29 21 14 12 13 15 17 19 17 13 10 12 18 23 24 25 25 25 25 24 22 17 11 7 6 5 4 3 1 1 1 1 0 0 0 0
0 0 0 0 1 3 5 7 10 15 22 29 34 33 28 22 21 24 27 28 29 26 19 13 12 14 16 18 20 22 23 22 18 13 10 8 7 6 5 5 5 3 2 2 2 2 1 1 0
0 0 0 0 1 4 7 10 14 19 30 43 48 47 42 34 30 33 38 40 40 36 28 21 18 16 15 15 17 18 18 18 15 9 6 6 6 6 5 6 8 7 4 3 3 4 3 2 1
0 0 0 1 2 5 7 10 12 18 31 45 52 52 48 41 38 39 44 47 46 42 35 29 25 21 17 17 18 17 16 16 12 8 7 8 9 10 11 14 16 14 8 4 3 4 4 3 2
0 0 0 2 3 5 7 10 14 18 27 37 44 45 44 42 42 44 48 51 50 46 39 34 33 30 27 25 23 21 21 20 16 13 13 12 12 14 19 25 26 22 14 9 7 6 6 5 5
0 0 0 1 3 5 9 15 21 25 28 32 36 37 39 41 44 48 52 55 55 51 45 41 41 42 42 38 31 28 27 26 24 22 20 18 17 19 23 28 30 26 20 16 14 12 10 9 9
0 0 0 1 2 4 10 17 24 28 30 30 29 31 35 40 46 51 54 57 55 52 47 45 45 48 50 47 39 35 33 30 29 29 28 25 25 25 25 27 28 27 24 22 20 18 16 15 13
0 0 0 1 2 3 7 12 19 24 26 26 28 31 37 43 48 52 55 55 52 49 46 44 43 45 49 48 42 37 36 35 34 35 33 31 30 29 29 29 29 27 27 27 23 20 19 18 15
0 0 0 0 1 1 2 7 14 18 20 24 30 35 40 45 48 51 54 53 50 47 44 41 39 42 46 45 39 35 36 38 39 38 35 31 29 29 31 32 32 30 29 28 25 22 21 18 14
0 0 0 0 0 0 0 4 12 16 18 25 34 37 39 41 42 43 47 48 46 44 41 36 35 39 42 40 34 33 35 38 39 38 34 30 28 28 30 32 33 30 28 27 25 24 24 21 17
0 0 0 0 0 0 0 4 11 15 19 28 35 36 36 37 34 32 34 36 37 38 35 31 30 34 37 35 31 32 33 35 36 35 31 26 24 24 26 27 27 26 25 25 25 27 26 22 20
0 0 0 0 0 0 1 6 11 14 20 28 32 32 34 35 30 25 25 25 27 30 30 28 27 28 29 28 28 28 29 29 29 28 25 22 19 19 19 18 17 18 19 21 23 23 22 20 19
0 0 0 0 0 0 2 6 9 12 18 25 28 29 32 33 28 23 21 20 21 22 25 24 22 22 23 23 23 22 22 22 21 19 19 18 17 15 12 10 9 11 14 16 16 15 15 14 14
0 0 0 0 0 0 2 5 7 10 15 22 26 29 32 31 27 23 21 20 20 20 21 19 17 18 20 22 21 19 17 15 12 11 12 13 13 11 8 5 5 7 10 12 10 9 8 7 8
0 0 0 0 0 0 1 3 6 10 16 23 25 28 33 33 28 25 23 22 20 19 18 16 14 15 18 20 19 16 14 11 7 4 5 6 6 6 5 3 3 5 7 9 8 7 4 3 3
0 0 0 0 0 0 0 2 7 14 20 24 25 29 36 37 32 29 26 23 18 16 14 13 13 15 17 17 15 12 9 7 4 3 2 2 2 2 2 2 3 4 5 6 7 5 3 2 2
0 0 0 0 0 0 0 2 8 17 23 24 25 31 39 41 37 33 28 23 16 12 12 12 13 14 16 15 12 8 6 4 4 5 4 2 1 0 0 1 2 4 4 5 6 3 2 3 3
0 0 0 0 0 0 0 2 9 18 23 24 27 34 41 43 39 33 27 20 14 11 11 11 12 12 13 12 10 7 4 4 5 6 5 4 2 1 0 1 2 3 3 4 4 3 2 3 3
0 0 0 0 0 0 0 6 14 19 23 29 32 35 39 38 35 30 24 17 12 11 11 10 10 10 10 9 8 6 5 5 6 6 6 4 3 1 0 0 1 1 2 2 2 2 2 2 2
0 0 0 0 0 0 1 9 20 23 27 33 33 33 33 31 29 26 21 16 12 10 10 10 9 9 8 7 6 6 7 7 7 6 6 5 3 1 0 0 0 0 1 1 1 1 0 1 1
0 0 0 0 0 0 1 9 18 24 27 29 29 30 30 27 25 22 18 14 12 10 9 9 8 7 6 6 6 6 6 7 7 6 4 4 3 1 0 0 0 0 0 0 0 0 0 0 0
0 0 0 0 0 0 1 5 15 22 24 24 25 27 27 24 20 17 15 13 11 9 8 7 6 4 3 4 5 4 4 5 5 4 3 3 2 1 0 0 0 0 0 0 0 0 0 0 0
0 0 0 0 0 1 2 5 13 20 22 22 22 23 22 20 17 15 13 11 8 5 4 3 3 1 1 2 3 3 3 3 3 3 2 1 1 0 0 0 0 0 0 0 0 0 0 0 0
0 0 0 0 0 1 3 6 13 18 19 20 20 21 20 19 17 15 13 10 6 2 1 1 1 0 0 1 3 3 3 3 3 2 1 0 0 0 0 0 0 0 0 0 0 0 0 0 0

GEFSSGP_con_probscp_150.txt.gz
Probability
0 0 0 0 0 0 0 0 0 1 2 7 15 19 19 14 7 2 0 4 8 8 8 11 14 14 11 7 5 5 4 2 0 1 2 4 5 5 3 3 3 2 0 0 0 0 0 0 0
0 0 0 0 0 0 0 1 2 2 4 12 22 27 24 17 9 2 0 3 8 10 10 12 14 16 14 10 8 7 6 5 3 2 3 3 3 4 3 2 2 2 0 0 0 0 0 0 0
0 0 0 0 0 0 0 1 5 9 13 22 32 34 26 15 8 2 0 3 7 11 13 14 15 18 17 15 12 11 10 8 7 6 4 3 2 3 3 3 2 1 0 0 0 0 0 0 1
0 0 0 0 0 0 0 2 10 22 31 36 38 35 24 11 5 3 3 5 7 9 12 16 19 20 19 18 16 14 12 11 10 9 7 5 3 3 4 4 3 1 1 1 1 1 0 0 1
0 0 0 0 0 1 1 5 18 34 44 45 42 36 24 12 6 5 6 8 8 8 9 16 23 24 22 21 19 17 14 13 12 10 10 8 5 4 4 4 4 3 2 2 2 1 1 1 1
0 0 0 0 0 1 3 11 26 40 44 41 38 33 24 14 9 7 8 9 9 9 11 15 21 24 26 27 25 21 18 16 13 11 11 9 7 6 5 5 4 3 2 2 1 1 1 1 2
0 0 0 0 0 2 6 16 29 38 37 32 27 24 20 16 11 8 9 10 10 10 12 11 12 15 21 25 25 23 19 15 12 11 11 10 9 8 6 5 4 2 1 1 0 0 0 1 2
0 0 0 0 1 3 9 21 32 35 33 27 22 21 21 21 18 14 12 12 11 10 8 6 4 5 8 12 17 19 16 13 11 11 11 10 7 6 5 4 3 1 0 0 0 0 0 0 1
0 0 0 0 2 6 14 26 37 40 37 33 30 29 28 27 26 22 17 13 11 8 6 3 3 3 4 6 10 12 12 11 9 8 9 7 4 3 4 5 5 3 2 2 2 1 1 0 0
0 0 1 2 5 11 19 31 42 44 41 39 40 39 36 34 32 27 21 15 11 9 7 5 4 6 8 8 9 10 10 8 5 4 4 3 1 1 3 6 7 6 5 4 4 4 3 2 1
0 1 2 4 9 14 20 31 39 41 35 35 41 43 40 36 33 29 23 18 14 12 10 8 7 8 8 7 7 8 8 6 3 1 1 1 1 1 2 3 5 5 4 3 3 4 4 3 2
1 2 3 5 10 14 21 29 35 34 28 29 36 40 39 36 33 28 24 22 20 18 14 10 8 7 7 6 6 6 6 6 4 2 1 2 2 1 1 1 1 2 2 2 1 2 3 3 2
1 3 4 5 7 14 25 32 33 30 28 29 34 37 38 37 34 29 26 25 25 23 18 15 12 11 11 11 9 8 8 7 6 5 4 3 3 1 1 0 0 0 1 1 1 1 1 2 2
1 3 4 4 6 15 27 32 32 31 32 33 34 35 37 38 36 32 29 27 27 26 23 21 18 15 15 14 13 12 10 9 8 7 6 5 5 4 2 0 0 0 0 0 0 0 0 1 1
1 2 2 2 4 13 23 27 27 30 35 36 34 34 36 37 36 35 32 28 25 24 23 22 19 15 12 11 11 11 10 10 9 9 9 8 7 7 4 1 0 1 1 0 0 0 0 0 0
0 1 1 1 2 8 15 19 22 28 34 35 34 35 35 34 33 32 30 26 21 19 17 17 16 11 7 6 6 8 10 10 10 11 11 10 8 8 6 3 2 2 2 1 0 0 0 0 0
0 0 0 0 0 3 8 15 21 28 31 33 33 32 31 30 27 25 24 21 16 13 13 13 10 7 4 3 4 6 9 11 11 11 11 9 8 7 6 4 3 3 2 1 0 0 0 0 0
0 0 0 0 0 2 7 15 23 28 31 34 33 30 28 26 23 20 19 16 12 11 11 9 6 3 3 3 5 6 9 10 9 8 8 8 7 6 5 3 3 3 2 1 1 1 1 0 0
0 0 0 0 0 2 7 14 22 29 33 35 33 28 26 26 22 19 17 15 12 9 8 6 3 1 1 3 5 5 6 7 5 5 5 5 5 5 4 3 3 3 2 2 2 2 2 1 0
0 0 0 0 1 3 6 11 18 25 29 32 29 25 25 26 22 18 17 15 13 9 6 4 2 0 0 2 3 3 3 4 3 3 2 2 2 3 2 1 1 2 2 2 2 3 2 1 0
0 0 0 0 1 2 4 8 13 18 22 24 24 24 25 25 21 18 17 15 11 8 6 4 3 1 0 0 1 1 1 2 2 1 1 0 0 1 1 0 0 0 0 1 1 1 1 1 0
0 0 0 0 1 1 2 4 9 14 17 20 23 24 25 23 19 17 15 13 10 8 6 4 3 2 1 0 0 0 0 1 1 0 0 0 0 0 0 0 0 0 0 0 0 0 0 0 0
0 0 0 0 0 0 0 1 6 13 16 18 22 23 22 19 16 14 13 12 10 8 6 4 3 3 1 0 0 0 0 0 1 1 1 0 0 0 0 0 0 0 0 0 0 0 0 0 0
0 0 0 0 0 0 0 0 4 10 14 17 20 20 19 16 14 13 13 12 11 9 6 5 4 3 2 1 0 0 0 1 3 4 3 1 0 0 0 0 0 0 0 0 0 0 0 0 0
0 0 0 0 0 0 0 0 2 5 10 14 18 19 18 15 15 16 15 14 12 9 6 5 4 3 3 2 1 0 0 1 4 5 4 2 1 0 0 0 0 0 0 0 0 0 0 0 0
0 0 0 0 0 0 0 0 1 3 7 12 16 19 18 16 16 15 14 12 11 9 6 5 4 3 3 3 2 1 0 1 4 5 5 3 2 1 0 0 0 0 0 0 0 0 0 0 0
0 0 0 0 0 0 0 0 0 2 7 11 14 16 16 15 14 12 10 10 8 7 5 3 3 2 2 2 2 2 2 2 3 4 4 3 2 1 0 0 0 0 0 0 0 0 0 0 0
0 0 0 0 0 0 0 0 1 3 7 11 13 13 12 12 11 9 7 7 6 4 3 1 1 1 1 1 1 2 2 3 3 3 3 3 2 1 0 0 0 0 0 0 0 0 0 0 0
0 0 0 0 0 0 0 0 1 3 7 10 10 9 8 9 9 7 6 5 4 3 2 1 0 0 0 0 0 1 1 2 3 3 3 3 2 1 0 0 0 0 0 0 0 0 0 0 0
0 0 0 0 0 0 0 0 1 3 6 8 8 6 6 7 7 7 6 5 4 3 2 1 0 0 0 0 0 0 0 1 3 3 3 3 1 0 0 0 0 0 0 0 0 0 0 0 0

GEFSSGP_con_probscp_156.txt.gz
Probability
0 0 0 0 0 0 0 0 0 0 1 2 3 4 6 5 4 3 2 3 3 3 3 4 6 9 11 10 9 9 8 9 11 12 12 11 11 9 7 5 3 4 4 4 4 3 3 3 3
0 0 0 0 0 0 0 0 0 0 1 4 6 7 7 5 4 3 3 3 4 4 4 6 9 12 13 13 11 10 10 11 13 14 12 10 9 8 7 5 4 5 6 5 4 3 3 3 3
0 0 0 0 0 0 0 0 1 3 4 7 9 9 7 5 3 3 4 5 5 5 6 8 13 16 18 18 16 13 12 14 16 16 14 10 8 9 10 8 6 7 7 6 4 4 4 4 4
0 0 0 0 0 0 0 0 3 7 8 7 8 9 7 4 2 4 5 6 7 7 7 11 17 22 24 24 22 18 16 17 19 19 17 14 12 13 13 12 10 9 8 7 5 5 5 5 5
0 0 0 0 0 0 0 1 5 10 10 8 9 10 9 5 3 4 6 7 8 9 9 13 21 26 27 26 23 21 19 19 20 22 22 22 19 16 15 15 12 10 9 8 7 5 5 4 4
0 0 0 1 1 1 1 2 6 9 11 11 13 14 12 8 5 4 5 7 8 8 9 13 19 22 23 23 22 20 17 17 19 21 22 22 22 17 14 12 11 9 9 9 7 5 4 3 3
0 0 0 1 2 2 2 4 8 12 13 12 14 16 14 10 8 5 5 6 6 6 7 9 11 14 16 20 22 20 16 15 16 17 16 17 18 15 11 10 9 7 7 8 7 5 4 4 4
0 0 0 1 2 3 4 7 12 17 17 14 13 12 13 14 12 10 10 8 5 5 6 6 5 7 11 16 19 19 16 13 14 14 12 10 11 10 9 11 10 7 7 7 7 5 5 6 7
0 0 0 1 2 3 5 10 17 20 20 17 15 15 20 24 21 19 17 12 8 6 5 5 5 6 7 9 12 13 11 10 11 12 10 8 6 6 7 10 11 9 9 8 7 7 7 8 8
0 1 1 0 1 3 7 13 17 18 18 18 21 28 35 33 26 21 18 14 10 7 4 4 6 7 6 6 7 7 6 5 7 9 9 8 6 5 6 7 7 7 7 7 8 8 8 8 7
1 2 2 1 2 6 12 15 17 17 14 15 26 39 44 35 24 18 15 12 9 7 5 5 7 8 7 7 9 9 8 6 6 7 8 9 7 5 5 5 4 4 4 5 7 8 8 7 6
2 3 4 4 7 11 16 20 22 20 16 16 28 41 41 31 22 16 12 10 8 8 7 6 8 10 10 11 13 14 13 11 9 8 8 8 6 4 4 3 3 4 4 4 5 6 5 4 4
2 3 5 7 10 14 19 24 28 27 25 27 34 39 36 28 21 15 12 9 9 8 7 7 9 11 12 13 14 15 14 11 10 8 7 6 5 4 4 4 4 4 4 4 5 4 3 2 3
2 3 5 6 10 16 22 26 29 32 35 38 37 35 31 25 20 15 11 9 8 6 5 5 7 9 10 10 11 12 10 8 7 7 6 6 6 6 6 5 4 3 3 4 4 3 2 2 2
2 2 3 5 8 13 19 24 26 31 39 39 33 29 26 23 17 13 9 7 5 4 3 3 4 6 6 6 7 6 5 5 4 4 4 5 6 7 7 6 5 4 3 2 2 2 2 2 1
1 1 2 5 6 8 13 17 21 29 36 33 27 24 25 23 16 11 9 7 6 5 3 3 3 4 4 3 3 2 1 1 2 2 2 3 5 7 8 6 4 3 3 1 0 1 2 2 2
0 0 1 3 5 7 10 12 17 25 31 27 22 22 24 23 18 14 12 11 9 7 5 4 3 3 2 1 1 1 0 0 1 2 2 3 4 6 7 5 3 2 2 1 0 1 2 2 1
0 0 0 2 5 9 12 13 16 21 25 23 21 21 22 21 18 15 15 14 11 7 6 5 4 2 1 0 0 0 0 0 1 2 3 3 4 5 4 3 2 1 1 1 1 1 1 1 0
0 0 0 1 4 10 14 16 17 19 21 23 23 22 20 18 15 13 12 12 9 7 6 5 4 2 0 0 0 0 0 0 0 1 2 3 3 3 2 1 1 0 0 1 1 1 1 0 0
0 0 0 1 3 8 13 15 16 17 19 22 24 22 18 15 13 11 10 8 7 6 6 5 4 2 0 0 0 0 0 0 0 0 1 1 2 1 1 0 0 0 0 0 1 1 0 0 0
0 0 0 0 1 5 9 11 12 14 16 18 19 17 14 12 12 12 9 6 5 6 6 4 3 2 1 1 1 0 0 0 0 0 0 0 0 0 0 0 0 0 0 0 0 0 0 0 0
0 0 0 0 0 2 4 5 7 10 12 13 13 12 10 10 12 13 10 7 6 7 6 4 2 2 2 2 2 1 0 0 0 0 0 0 0 0 0 0 0 0 0 0 0 0 0 0 0
0 0 0 0 0 0 1 1 3 7 9 10 11 10 10 10 13 14 11 8 7 7 6 3 2 2 3 3 2 1 0 0 0 0 0 0 0 0 0 0 0 0 0 0 0 0 0 0 0
0 0 0 0 0 0 0 0 1 4 6 8 11 11 11 13 14 13 9 7 6 5 4 2 1 1 2 2 2 1 0 0 0 0 0 0 0 0 0 0 0 0 0 0 0 0 0 0 0
0 0 0 0 0 0 0 0 0 1 2 6 10 12 12 14 15 11 6 3 3 2 2 1 0 0 1 1 1 0 0 0 0 0 0 0 0 0 0 0 0 0 0 0 0 0 0 0 0
0 0 0 0 0 0 0 0 0 0 0 3 7 9 10 13 13 8 4 1 1 1 1 0 0 0 0 0 0 0 0 0 0 0 0 0 0 0 0 0 0 0 0 0 0 0 0 0 0
0 0 0 0 0 0 0 0 0 0 1 2 4 6 8 10 11 7 2 0 0 0 0 0 0 0 0 0 0 0 0 0 0 0 0 0 0 0 0 0 0 0 0 0 0 0 0 0 0
0 0 0 0 0 0 0 0 0 1 2 3 3 3 5 7 7 6 3 1 1 1 1 0 0 0 0 0 0 0 0 0 0 0 0 0 0 0 0 0 0 0 0 0 0 0 0 0 0
0 0 0 0 0 0 0 0 0 0 1 1 1 1 2 4 6 6 4 3 3 3 3 1 0 0 0 0 0 0 0 0 0 0 0 0 0 0 0 0 0 0 0 0 0 0 0 0 0
0 0 0 0 0 0 0 0 0 0 0 0 0 0 1 4 6 6 5 4 5 5 4 2 1 0 0 0 0 0 0 0 0 0 0 0 0 0 0 0 0 0 0 0 0 0 0 0 0

GEFSSGP_con_probscp_162.txt.gz
Probability
0 0 0 0 0 0 0 0 1 0 0 1 1 0 0 0 0 1 2 3 3 2 1 1 1 1 0 1 3 5 6 4 4 4 3 1 0 0 0 0 0 0 0 0 0 0 0 0 0
0 0 0 0 0 0 1 1 1 1 1 1 1 0 0 0 0 1 3 3 3 2 1 2 3 2 0 0 2 5 6 4 4 5 4 2 1 0 0 0 0 0 0 0 0 0 0 0 0
0 0 0 0 0 1 2 2 2 1 1 1 1 1 1 0 1 2 3 3 3 1 1 3 5 4 1 0 1 4 5 4 5 5 4 3 2 0 0 0 0 0 0 0 0 0 0 0 0
0 0 0 0 1 2 4 3 1 0 0 0 0 2 4 3 2 3 4 3 2 1 1 4 7 7 4 2 2 4 5 5 5 6 5 3 1 0 0 0 0 0 0 0 0 0 0 0 0
0 0 0 0 1 3 4 3 1 0 0 0 1 4 8 9 6 5 4 4 3 1 1 4 8 10 8 5 5 6 7 7 7 7 5 3 2 1 1 0 0 0 0 0 0 0 0 0 1
0 0 0 0 1 3 3 1 0 0 0 1 2 7 13 14 10 6 5 4 3 2 2 3 7 9 8 7 8 10 12 13 11 8 7 6 5 4 3 1 1 1 0 0 0 0 0 0 1
0 0 0 0 1 2 2 1 1 2 4 5 5 9 15 19 14 8 5 3 2 1 2 3 5 6 6 7 9 13 16 15 12 10 10 10 8 6 4 3 3 2 1 0 0 0 0 0 1
0 0 0 0 1 2 1 1 3 8 12 12 10 12 20 25 21 12 7 4 2 1 2 3 4 4 4 5 7 11 13 12 10 9 10 9 7 5 3 4 5 5 3 1 1 1 0 0 0
0 0 0 0 1 2 1 3 7 13 18 18 16 20 31 36 30 21 14 9 4 2 2 2 2 2 2 3 4 5 6 7 7 7 8 7 5 3 3 5 8 7 5 3 2 1 0 0 0
0 0 0 0 1 2 3 6 10 14 18 20 22 33 44 44 35 27 21 14 8 4 2 2 1 1 1 3 4 3 4 6 7 7 8 6 5 4 6 9 10 9 7 6 5 3 1 1 1
0 1 2 2 3 4 6 9 11 14 16 17 26 40 50 46 35 29 25 19 12 7 4 4 4 4 4 6 6 5 6 10 11 13 13 11 10 10 11 13 13 11 11 11 10 7 4 4 5
1 3 5 5 5 7 9 12 16 19 19 22 30 40 46 43 34 29 26 22 16 11 8 8 9 10 11 11 11 11 12 15 17 19 20 18 17 16 16 17 17 16 17 17 15 12 10 8 9
1 3 4 5 8 10 12 16 22 23 24 29 35 36 37 36 31 27 25 22 17 13 12 12 13 15 16 17 17 18 20 22 21 23 23 21 20 18 16 19 19 18 21 22 20 17 15 14 12
1 1 1 3 7 9 11 16 22 22 22 28 34 32 30 29 27 25 24 21 16 13 12 13 14 15 16 19 21 22 23 24 22 21 21 20 18 16 15 17 18 19 21 23 22 18 17 16 15
0 0 0 1 3 4 6 12 19 18 17 23 28 27 26 27 27 26 22 19 17 16 15 14 14 14 17 21 24 23 22 21 19 17 17 15 13 14 16 17 18 19 20 22 22 19 17 16 17
0 0 0 0 0 0 2 8 15 16 16 20 23 23 25 27 27 25 22 20 20 20 19 18 16 18 22 25 24 21 19 18 15 13 12 11 11 13 16 18 19 19 20 21 22 20 18 17 18
0 0 0 0 0 0 1 6 12 15 17 20 20 20 23 24 22 20 20 20 21 22 21 20 21 23 25 24 20 17 16 14 11 9 9 10 11 11 13 16 18 19 20 21 21 19 18 18 19
0 0 0 0 0 0 0 4 10 16 18 19 19 19 20 21 19 17 18 19 20 21 20 19 20 23 23 19 15 13 12 10 9 7 6 7 8 9 11 13 16 18 20 19 17 16 16 17 18
0 0 0 0 0 0 0 2 8 15 18 19 20 21 22 22 20 18 17 18 19 19 17 17 18 19 19 17 15 12 9 8 6 4 3 3 4 6 9 11 13 15 15 15 14 13 13 14 14
0 0 0 1 1 1 0 1 5 12 17 19 21 22 23 23 21 18 17 18 19 19 17 16 16 15 15 15 14 12 9 7 4 2 1 1 1 2 5 8 9 10 10 10 10 10 11 11 12
0 0 0 1 2 1 0 0 4 10 14 17 19 21 22 22 21 19 18 18 19 18 17 16 15 13 12 12 11 11 10 8 5 3 1 0 0 0 2 4 5 5 6 6 7 8 8 9 10
0 0 0 0 1 1 0 0 3 9 13 14 17 20 22 23 23 21 19 16 15 16 16 16 14 12 11 10 9 9 10 9 6 4 2 1 0 0 1 1 3 3 4 4 4 5 5 6 7
0 0 0 0 0 0 0 0 2 7 9 10 15 21 25 25 24 23 20 15 13 14 15 15 13 11 9 8 8 8 9 8 6 4 3 1 0 0 0 1 2 2 2 3 3 3 3 4 5
0 0 0 0 0 0 0 0 1 3 5 8 13 21 25 25 24 24 22 18 15 14 13 13 12 10 7 6 5 5 6 6 4 3 2 1 1 1 0 0 1 2 2 2 2 1 1 3 4
0 0 0 0 0 0 0 0 1 3 5 8 13 18 20 19 20 22 23 21 18 14 12 11 9 7 5 5 4 3 3 3 2 1 1 1 1 1 0 0 1 2 2 1 1 0 0 1 2
0 0 0 0 0 0 0 0 1 3 5 8 13 15 14 12 14 18 20 21 19 15 12 9 6 5 6 6 6 4 3 2 2 1 0 0 1 1 0 0 1 1 1 1 0 0 0 0 1
0 0 0 0 0 0 0 0 1 2 4 9 13 13 11 11 13 15 16 17 16 14 11 7 5 5 6 7 8 6 4 3 2 1 0 0 1 0 0 0 0 0 0 0 0 0 0 0 0
0 0 0 0 0 0 0 0 1 3 6 10 12 11 10 11 13 13 12 12 13 14 12 9 7 7 7 8 8 6 5 4 3 2 1 1 1 0 0 0 0 0 0 0 0 0 0 0 0
0 0 0 0 0 0 0 0 2 7 10 12 10 8 7 9 10 10 8 9 11 13 14 11 9 9 8 9 8 6 5 5 3 3 2 1 0 0 0 0 0 0 0 0 0 0 0 0 0
0 0 0 0 0 0 0 1 4 9 12 12 10 6 4 6 8 7 6 7 9 12 13 12 10 10 10 10 9 7 6 5 4 3 3 1 0 0 0 0 0 0 0 0 0 0 0 0 0

GEFSSGP_con_probscp_168.txt.gz
Probability
0 0 0 0 0 0 0 1 3 4 5 6 7 11 14 12 7 6 7 14 20 13 5 4 5 2 0 1 2 2 1 1 1 1 1 0 0 0 0 0 0 0 0 0 0 0 0 0 0
0 0 0 0 0 0 1 2 4 5 6 8 10 15 18 13 8 9 12 18 20 12 5 5 5 3 1 1 2 1 1 2 2 2 2 1 0 0 0 0 0 0 0 0 0 0 0 0 0
0 0 0 0 0 0 2 4 5 7 8 11 16 22 22 15 11 14 18 20 18 12 8 8 7 4 2 2 1 1 2 3 3 3 3 2 1 0 0 0 0 0 0 0 0 0 0 1 1
0 0 0 0 0 0 2 5 6 8 11 14 19 25 24 17 15 18 20 19 16 13 11 11 10 8 5 3 2 2 3 3 3 3 3 3 2 1 0 0 0 0 0 0 0 0 0 0 0
0 0 0 0 0 1 2 4 6 9 13 17 23 27 25 22 20 19 17 17 16 14 12 12 13 13 10 6 4 4 4 3 2 3 3 3 3 2 1 0 0 0 0 0 0 0 0 0 0
0 0 0 0 1 3 4 5 7 12 14 20 27 30 29 27 25 21 17 16 17 16 15 14 14 15 14 11 9 7 5 4 2 2 2 2 2 2 1 0 0 0 0 0 0 0 0 0 0
0 0 0 0 2 5 8 10 14 17 19 23 29 31 31 32 31 26 21 20 20 20 18 16 13 14 14 13 11 9 7 5 3 2 2 2 1 1 0 0 1 2 1 1 0 0 0 0 0
0 0 0 0 2 6 11 16 22 25 27 30 31 31 33 36 36 32 28 28 27 25 24 20 14 11 10 10 10 9 8 6 4 3 2 2 2 1 1 3 5 5 4 3 1 0 0 0 0
0 0 0 0 2 7 11 17 24 29 34 37 37 38 39 39 39 38 37 37 35 33 31 26 18 12 8 8 9 10 8 7 6 5 6 6 5 5 5 9 12 10 7 5 3 1 1 0 0
0 0 0 1 4 9 12 16 20 25 33 38 43 46 43 40 41 41 39 38 38 39 36 31 24 17 11 11 13 12 11 10 9 10 12 13 12 10 11 16 20 16 10 7 4 3 3 2 1
0 0 2 5 8 12 15 17 19 23 28 33 40 44 41 39 40 39 36 36 38 40 38 33 29 25 21 21 20 16 14 14 14 16 21 22 21 19 19 25 27 22 14 10 7 7 8 7 5
0 1 4 8 11 13 16 18 21 25 27 29 33 37 39 37 36 37 37 38 41 43 42 39 36 33 33 32 28 22 20 21 22 25 30 31 29 27 27 31 33 29 22 16 14 14 13 11 10
1 2 4 8 10 11 12 15 20 25 25 26 29 32 35 34 34 39 44 48 48 48 49 48 43 39 40 40 35 30 29 29 30 33 36 35 33 32 32 34 35 33 29 22 20 19 16 14 14
2 2 3 6 8 8 9 12 17 22 24 24 26 29 32 33 35 42 51 56 55 53 53 51 46 42 43 44 42 38 34 33 35 37 37 35 33 33 34 33 33 33 30 25 22 21 18 15 13
1 1 2 4 5 6 8 10 15 23 27 26 25 28 32 35 38 46 54 59 58 56 54 51 46 44 46 47 45 40 36 35 36 37 36 33 30 29 29 28 28 29 27 24 23 23 21 15 11
0 0 1 2 4 5 5 9 17 27 33 31 29 32 36 40 44 50 57 62 61 59 57 52 47 46 46 45 43 41 38 37 37 36 34 29 24 20 20 21 23 24 22 21 21 22 21 15 10
0 0 0 2 3 3 4 10 21 31 34 32 33 39 44 46 47 53 61 66 64 62 59 54 49 46 43 41 42 41 40 38 35 33 30 24 19 16 14 16 19 19 18 17 16 17 17 15 12
0 0 0 1 1 1 5 13 24 30 29 29 34 43 48 48 48 53 60 63 62 61 59 55 50 46 42 39 39 39 38 35 32 29 25 19 16 14 12 12 14 16 15 14 12 11 12 12 12
0 0 0 0 0 1 6 14 22 25 24 27 34 42 47 46 45 48 52 56 57 58 57 54 49 46 43 40 38 37 34 29 26 23 20 16 15 12 10 9 10 11 12 12 10 7 8 10 9
0 0 0 0 0 1 5 11 15 17 20 26 34 39 40 41 40 41 45 50 53 54 52 49 45 45 45 41 38 36 31 25 21 18 15 13 11 10 8 8 7 7 9 9 7 5 6 7 6
0 0 0 0 0 1 3 6 9 13 18 26 34 37 37 36 36 38 42 46 48 48 46 42 40 41 42 39 35 32 27 22 19 16 12 10 8 8 8 8 6 5 7 8 6 4 3 3 4
0 0 0 0 0 1 1 2 5 11 18 25 33 38 39 36 34 35 40 43 44 43 41 40 39 37 35 32 29 25 21 18 17 15 11 9 7 5 5 5 5 5 7 8 6 3 1 1 2
0 0 0 0 0 0 0 0 4 10 17 23 30 36 40 38 33 32 37 40 41 40 39 39 38 33 27 24 23 20 16 15 15 12 10 8 5 2 1 2 3 4 6 6 5 4 2 2 3
0 0 0 0 0 0 0 0 3 7 14 20 25 30 36 37 33 33 37 39 38 36 36 35 33 28 22 18 17 16 15 15 13 10 7 6 3 1 0 0 1 3 5 6 6 5 5 5 5
0 0 0 0 0 0 0 1 3 7 11 15 20 26 33 35 33 34 38 37 35 33 32 30 27 23 19 16 15 15 15 14 13 9 6 4 2 1 0 1 1 3 5 5 6 5 5 6 7
0 0 0 0 0 0 0 2 5 8 10 14 18 24 31 34 32 34 36 35 33 30 28 26 23 20 18 16 15 15 15 14 12 10 6 3 2 1 1 2 3 4 4 4 5 5 5 6 7
0 0 0 0 0 0 0 3 8 11 12 15 19 22 27 30 29 31 33 32 29 26 24 21 20 19 18 17 16 15 15 13 12 9 6 4 3 3 3 3 4 4 4 4 5 5 5 4 5
0 0 0 0 0 0 0 3 9 14 17 19 21 22 25 27 28 29 31 29 26 23 21 19 18 19 18 17 16 16 15 14 12 10 7 6 5 4 3 3 3 4 3 4 5 5 4 3 3
0 0 0 0 0 0 0 2 9 16 22 24 24 24 26 28 29 30 30 26 22 20 19 18 18 19 18 17 16 16 15 15 13 11 8 7 6 4 3 3 3 3 3 3 3 4 3 3 3
0 0 0 0 0 0 0 2 8 18 25 25 25 24 26 30 30 30 28 23 19 18 18 19 19 19 18 17 16 16 15 14 13 11 8 7 6 5 4 3 3 3 3 2 2 3 3 2 3

GEFSSGP_con_probscp_174.txt.gz
Probability
0 0 0 0 0 0 0 1 2 5 8 11 11 11 12 9 4 1 1 1 5 10 12 16 22 23 20 15 11 7 2 2 3 3 3 3 3 2 2 2 2 2 2 1 0 0 0 0 0
0 0 0 0 0 0 0 1 4 7 12 17 18 18 18 15 9 4 2 3 7 12 15 20 27 28 22 16 12 7 3 2 2 2 2 2 2 1 1 1 1 1 1 0 0 0 0 0 0
0 0 0 0 0 0 0 2 6 11 17 24 26 25 25 21 14 8 5 8 12 16 20 27 36 35 26 18 13 7 4 3 2 1 1 1 1 0 0 0 0 0 0 0 0 0 0 0 0
0 0 0 0 0 0 0 3 7 13 21 27 30 33 30 22 17 13 12 14 18 21 25 32 41 40 29 21 15 9 6 5 3 1 0 0 0 0 0 0 0 0 0 0 0 0 0 0 0
0 0 0 0 0 0 1 4 9 15 22 29 33 36 31 23 21 20 19 19 22 25 27 32 40 39 30 22 18 14 10 8 5 2 0 0 0 0 0 0 0 0 0 0 0 0 0 0 0
0 0 0 0 0 0 1 4 9 16 24 30 35 35 30 24 22 23 22 21 23 26 26 29 34 33 29 25 21 18 15 12 9 5 2 1 0 0 1 0 0 0 0 0 0 0 0 0 0
0 0 0 0 0 1 2 4 10 18 25 31 35 34 31 25 22 21 22 23 24 24 23 22 24 26 26 24 21 19 17 15 12 9 7 4 1 1 1 0 1 1 1 0 0 0 0 0 0
0 0 0 0 1 2 4 6 13 20 25 28 32 33 32 29 25 24 24 24 23 22 19 17 18 19 20 19 18 17 16 14 13 11 9 6 3 1 1 2 3 3 2 1 1 2 2 1 1
0 0 0 0 1 4 7 10 15 22 27 28 30 31 31 31 31 30 27 24 24 22 18 16 15 15 13 12 13 14 14 12 10 10 9 7 4 3 3 4 5 5 4 3 3 4 4 5 4
0 0 0 1 2 5 8 11 15 21 26 29 31 30 31 34 35 33 29 26 26 24 19 16 16 14 11 8 9 11 11 10 8 7 9 10 7 5 5 6 7 6 5 6 6 5 5 6 6
0 1 1 2 3 5 7 8 12 16 18 22 28 31 33 36 37 35 32 27 26 25 21 18 16 15 11 9 9 10 10 9 6 5 8 11 10 8 7 8 8 7 6 7 8 6 5 5 5
2 2 3 3 3 5 5 6 8 10 11 16 24 32 34 34 35 35 33 29 27 25 22 19 18 16 13 12 12 12 12 10 7 6 7 10 10 8 8 8 8 7 7 8 8 6 4 4 4
4 4 4 3 4 6 7 7 9 11 12 19 28 33 34 34 34 34 33 30 28 27 25 22 20 19 17 17 16 15 14 12 10 9 10 10 10 9 7 7 6 5 6 7 7 6 5 4 5
5 5 4 3 5 8 10 11 12 14 18 26 32 33 34 35 34 33 31 30 28 29 29 28 26 23 22 21 20 19 17 15 13 12 12 12 10 8 6 5 5 3 3 5 5 5 4 3 3
4 4 3 3 5 7 10 12 12 15 22 29 32 33 32 33 33 32 31 32 32 32 33 34 31 29 28 26 25 23 20 16 14 11 11 10 8 5 3 3 3 1 1 2 2 2 2 1 1
2 1 1 2 4 6 7 9 11 16 23 29 31 32 32 33 34 33 35 37 36 35 35 37 35 33 31 29 27 25 21 17 11 8 7 8 6 4 2 1 1 0 0 0 0 0 0 0 0
0 0 0 1 3 4 6 8 12 20 26 29 31 33 35 35 34 34 38 40 38 36 36 37 37 34 30 27 25 23 20 15 8 5 6 7 7 5 3 1 0 0 0 0 0 0 0 0 0
0 0 0 0 1 3 6 9 15 23 29 30 32 36 38 35 30 31 36 39 37 34 33 34 34 32 27 23 20 18 15 11 7 5 6 8 8 7 5 2 1 0 0 0 0 0 0 0 0
0 0 0 0 1 4 7 9 13 22 27 28 31 36 37 32 26 28 33 35 34 30 28 28 28 26 22 17 14 12 10 8 6 5 5 6 7 6 4 3 1 0 0 0 0 0 0 0 0
0 0 0 0 2 6 8 8 11 18 23 25 28 33 36 31 26 28 31 32 31 29 26 24 23 21 16 12 11 10 8 7 5 4 3 4 4 3 3 2 1 0 0 0 0 0 0 0 0
0 0 0 0 1 5 7 7 9 14 19 21 23 28 32 29 26 27 30 31 30 28 25 22 18 14 11 11 11 10 8 6 4 3 3 3 2 1 1 1 0 0 0 0 0 0 0 0 0
0 0 0 0 0 1 2 3 5 10 15 17 18 23 27 27 25 26 28 29 29 27 24 20 15 10 9 10 11 10 7 5 4 3 3 1 1 0 0 0 0 0 0 0 0 0 0 0 0
0 0 0 0 0 0 0 0 1 5 9 12 16 21 27 28 25 24 25 27 27 25 23 18 14 10 8 9 11 9 6 3 2 2 2 1 0 0 0 0 0 0 0 0 0 0 0 0 0
0 0 0 0 0 0 0 0 0 1 4 7 12 19 25 27 24 21 22 25 25 23 20 16 14 11 9 8 9 7 5 2 1 1 1 0 0 0 0 0 0 0 0 0 0 0 0 0 0
0 0 0 0 0 0 0 0 0 0 2 4 8 13 20 24 23 19 19 21 21 19 16 14 14 12 8 6 6 4 3 2 1 0 0 0 0 0 0 0 0 0 0 0 0 0 0 0 0
0 0 0 0 0 0 0 0 1 1 3 4 6 10 16 21 21 17 15 16 15 13 12 12 13 11 8 5 3 1 1 1 1 0 0 0 0 0 0 0 0 0 0 0 0 0 0 0 0
0 0 0 0 0 0 0 0 2 4 6 8 8 10 14 17 17 15 14 12 11 10 10 10 11 10 8 5 2 0 0 0 0 0 0 0 0 0 0 0 0 0 0 0 0 0 0 0 0
0 0 0 0 0 0 0 0 1 5 8 10 11 12 13 15 16 16 15 12 10 9 9 10 9 9 8 6 3 1 0 0 0 0 0 0 0 0 0 0 0 0 0 0 0 0 0 0 0
0 0 0 0 0 0 0 0 0 3 7 12 13 13 15 15 15 15 14 12 9 8 9 10 9 8 7 6 5 3 1 0 0 0 0 0 0 0 0 0 0 0 0 0 0 0 0 0 0
0 0 0 0 0 0 0 0 0 1 5 12 15 14 15 15 13 13 13 11 8 8 9 10 9 7 6 6 6 4 2 1 0 0 0 0 0 0 0 0 0 0 0 0 0 0 0 0 0